Regional Weather Roundup
Issued by NWS

Home | Current Version | Previous Version | Text Only | Print | Product List | Glossary On
Versions: 1 2 3 4 5 6 7 8 9 10 11 12 13 14 15 16 17 18 19 20 21 22 23 24 25 26 27 28 29 30 31 32 33 34 35 36 37 38 39 40 41 42 43 44 45 46 47 48 49 50
000
ASUS43 KBIS 030910
RWRND

NORTH DAKOTA REGIONAL WEATHER ROUNDUP
NATIONAL WEATHER SERVICE BISMARCK ND
400 AM CDT THU SEP 03 2015

NOTE: "FAIR" INDICATES FEW OR NO CLOUDS BELOW 12,000 FEET WITH NO
SIGNIFICANT WEATHER AND/OR OBSTRUCTIONS TO VISIBILITY.


NDZ001>003-009>011-017-031000-
NORTHWEST NORTH DAKOTA

CITY           SKY/WX    TMP DP  RH WIND       PRES   REMARKS
WILLISTON      PTCLDY    73  54  51 NW10G23   29.66R
MINOT          MOCLDY    73  68  84 SE12      29.65F
MINOT AFB      MOCLDY    67  67 100 SE8       29.64F
$$

NDZ018>021-031>035-040>046-031000-
SOUTHWEST NORTH DAKOTA

CITY           SKY/WX    TMP DP  RH WIND       PRES   REMARKS
BISMARCK       CLEAR     69  68  96 NE5       29.69F
DICKINSON      CLEAR     65  59  81 S9        29.67F
GARRISON         N/A     72  31  22 SE10      29.67F
HETTINGER ARPT CLEAR     59  57  93 CALM      29.72S
$$

NDZ004>008-012>016-024-026-027-054-031000-
NORTHEAST NORTH DAKOTA

CITY           SKY/WX    TMP DP  RH WIND       PRES   REMARKS
GRAND FORKS    PTCLDY    69  66  90 SE13      29.78S
GRND FRKS AFB  CLOUDY    70  68  94 S8        29.79R
DEVILS LAKE    CLOUDY    73  66  78 SE14      29.74S
$$

NDZ022-023-025-028>030-036>039-047>053-031000-
SOUTHEAST NORTH DAKOTA

CITY           SKY/WX    TMP DP  RH WIND       PRES   REMARKS
FARGO          CLOUDY    73  69  87 SE15      29.79S
JAMESTOWN      MOCLDY    73  71  93 SE10      29.75S FOG
$$




USA.gov is the U.S. government's official web portal to all federal, state and local government web resources and services.